Location: Unspecified
(29.9680°N, 0.0000°E)
Time: 10:06:19
(UTC+00:00)

Vanguard 1 Rocket - Pass Details

Date: 18 June 2019
Orbit: 651 x 4225 km, 34.3° (Epoch: 19 July)

Event Time Altitude Azimuth Distance (km) Brightness Sun altitude
Rises 22:24:42 0° 287° (WNW) 4,394 11.5 -31.8°
Reaches altitude 10° 22:28:17 10° 288° (WNW) 2,977 10.5 -32.1°
Enters shadow 22:33:09 46° 296° (WNW) 1,115 8.0 -32.6°
